"Pseudo-MPEC" for ST26H32

Created 2026 Aug 16 10:35:29 UT using Find_Orb

Click here for an explanation of pseudo-MPECs

 
 Astrometry: 
     ST26H32* C2026 08 11.25942621 23 34.944+02 53 46.73   ~8B75 18.56GVNEOCPU68
     ST26H32  C2026 08 11.26276721 23 42.807+02 49 07.30   ~8B75 18.56GVNEOCPU68
     ST26H32  C2026 08 11.28739221 24 41.067+02 14 30.72   ~8B7K 18.33GVNEOCPU74
     ST26H32  C2026 08 11.28842821 24 43.514+02 13 03.27   ~8B7K 18.33GVNEOCPU74

Station data:
(U68) JPL SynTrack Robotic Telescope, Auberry  (N37.070387 W119.412990)
   US/California.  Observers N. Saini, C. Zhai, R. Trahan, M. Zhan, M. Shao.
   0.28-m f/2.2 Schmidt + CCD.
(U74) JPL SynTrack Robotic Telescope 2, Auberry  (N37.070341 W119.412800)
   US/California.  Observers N. Saini, C. Zhai, R. Trahan, M. Zhan, M. Shao.
   0.36-m f/2.2 Schmidt.

Orbital elements:  ST26H32
   Perihelion 2026 Sep 18.376107 +/- 36.4 TT =  9:01:35.6 (JD 2461301.876107)
Epoch 2026 Aug 11.0 TT = JDT 2461263.5   Earth MOID: 0.0112      AutoNEOCP
M 350.975304881 +/- 23              (J2000 ecliptic)
n   0.235164424 +/- 0.267           Peri.  232.840145 +/- 46
a   2.599490893 +/- 1.97            Node   138.835283 +/- 0.23
e   0.66753327 +/- 0.275            Incl.   32.238606 +/- 11
P   4.19114                H 26.44  G  0.15   U 11.9  SR
q 0.864244226 +/- 0.0822    Q 4.334737561 +/- 30.2
From 4 observations 2026 Aug. 11 (41.8 min); mean residual 0".66
Residuals in arcseconds: 
260811 U68  .41-  1.0+    260811 U74  .24+  .56-    
260811 U68  .46+  1.1-    260811 U74  .28-  .67+    

Ephemerides (geocentric):
Date (UTC) HH   RA             Dec           delta  r     elong  mag " sig PA
---- --------  ------------   ------------  ------ ------ -----  --- --------
2026 08 16 11  07 34 49.835   -46 54 48.03  .05465 0.9926  67.1 24.3  37d  95
2026 08 16 12  07 35 14.368   -46 49 08.12  .05518 0.9923  67.0 24.3  38d  95
2026 08 16 13  07 35 38.355   -46 43 34.31  .05571 0.9920  66.8 24.3  38d  95
2026 08 16 14  07 36 01.811   -46 38 06.42  .05624 0.9917  66.7 24.4  38d  95
2026 08 16 15  07 36 24.756   -46 32 44.31  .05677 0.9914  66.6 24.4  38d  95
2026 08 16 16  07 36 47.206   -46 27 27.81  .05731 0.9911  66.5 24.4  38d  95
2026 08 16 17  07 37 09.177   -46 22 16.79  .05784 0.9908  66.4 24.4  38d  95
2026 08 16 18  07 37 30.684   -46 17 11.11  .05837 0.9906  66.3 24.5  38d  95
2026 08 16 19  07 37 51.741   -46 12 10.62  .05891 0.9903  66.2 24.5  38d  95
2026 08 16 20  07 38 12.364   -46 07 15.20  .05944 .98997  66.1 24.5  38d  95
2026 08 16 21  07 38 32.565   -46 02 24.72  .05997 .98968  66.0 24.5  38d  95
2026 08 16 22  07 38 52.356   -45 57 39.06  .06051 .98939  65.9 24.6  38d  95
2026 08 16 23  07 39 11.752   -45 52 58.09  .06104 .98910  65.8 24.6  38d  95
2026 08 17 00  07 39 30.763   -45 48 21.71  .06157 .98881  65.7 24.6  38d  95
2026 08 17 01  07 39 49.401   -45 43 49.79  .06211 .98852  65.6 24.6  38d  95
2026 08 17 02  07 40 07.677   -45 39 22.23  .06264 .98823  65.6 24.6  38d  95
2026 08 17 03  07 40 25.602   -45 34 58.93  .06318 .98794  65.5 24.7  38d  95
2026 08 17 04  07 40 43.186   -45 30 39.79  .06371 .98765  65.4 24.7  38d  95
2026 08 17 05  07 41 00.438   -45 26 24.70  .06425 .98736  65.3 24.7  38d  95
2026 08 17 06  07 41 17.368   -45 22 13.56  .06478 .98707  65.2 24.7  38d  95
2026 08 17 07  07 41 33.985   -45 18 06.30  .06532 .98678  65.1 24.7  39d  95
2026 08 17 08  07 41 50.298   -45 14 02.81  .06585 .98649  65.1 24.8  39d  95
2026 08 17 09  07 42 06.316   -45 10 03.00  .06639 .98620  65.0 24.8  39d  95
2026 08 17 10  07 42 22.046   -45 06 06.81  .06692 .98591  64.9 24.8  39d  96
2026 08 17 11  07 42 37.496   -45 02 14.13  .06746 .98563  64.8 24.8  39d  96
2026 08 17 12  07 42 52.673   -44 58 24.89  .06799 .98534  64.7 24.8  39d  96
2026 08 17 13  07 43 07.586   -44 54 39.02  .06853 .98505  64.7 24.9  39d  96
2026 08 17 14  07 43 22.241   -44 50 56.44  .06907 .98476  64.6 24.9  39d  96
2026 08 17 15  07 43 36.645   -44 47 17.07  .06960 .98448  64.5 24.9  39d  96
2026 08 17 16  07 43 50.804   -44 43 40.84  .07014 .98419  64.5 24.9  39d  96
2026 08 17 17  07 44 04.725   -44 40 07.69  .07067 .98390  64.4 24.9  39d  96
2026 08 17 18  07 44 18.414   -44 36 37.55  .07121 .98362  64.3 25.0  39d  96
2026 08 17 19  07 44 31.877   -44 33 10.35  .07175 .98333  64.3 25.0  39d  96
2026 08 17 20  07 44 45.119   -44 29 46.03  .07228 .98304  64.2 25.0  39d  96
2026 08 17 21  07 44 58.147   -44 26 24.53  .07282 .98276  64.1 25.0  39d  96
2026 08 17 22  07 45 10.965   -44 23 05.78  .07336 .98247  64.1 25.0  39d  96
2026 08 17 23  07 45 23.578   -44 19 49.73  .07389 .98219  64.0 25.0  39d  96
2026 08 18 00  07 45 35.992   -44 16 36.33  .07443 .98190  63.9 25.1  39d  96
2026 08 18 01  07 45 48.212   -44 13 25.51  .07497 .98162  63.9 25.1  39d  96
2026 08 18 02  07 46 00.241   -44 10 17.22  .07550 .98133  63.8 25.1  39d  96
2026 08 18 03  07 46 12.086   -44 07 11.41  .07604 .98105  63.8 25.1  39d  96
2026 08 18 04  07 46 23.749   -44 04 08.04  .07658 .98077  63.7 25.1  39d  96
2026 08 18 05  07 46 35.236   -44 01 07.04  .07711 .98048  63.6 25.1  39d  96
2026 08 18 06  07 46 46.550   -43 58 08.38  .07765 .98020  63.6 25.2  39d  96
2026 08 18 07  07 46 57.696   -43 55 12.00  .07819 .97992  63.5 25.2  39d  96
2026 08 18 08  07 47 08.678   -43 52 17.86  .07872 .97963  63.5 25.2  39d  96
2026 08 18 09  07 47 19.498   -43 49 25.91  .07926 .97935  63.4 25.2  39d  96
2026 08 18 10  07 47 30.162   -43 46 36.11  .07980 .97907  63.4 25.2  39d  96